TimeCET,TemperatureF,Dew PointF,Humidity,Sea Level PressureIn,VisibilityMPH,Wind Direction,Wind SpeedMPH,Gust SpeedMPH,PrecipitationIn,Events,Conditions,WindDirDegrees,DateUTC
12:55 AM,15.8,14.0,93,29.36,0.2,NW,10.4,-,N/A,Fog-Snow,Light Snow,320,2012-12-07 23:55:00
1:00 AM,15,14,95,,0,NW,10.4,,,Snow,Light Snow,320,2012-12-08 00:00:00
3:55 AM,15.8,10.4,79,29.30,0.1,NW,11.5,-,N/A,Fog,Light Freezing Fog,310,2012-12-08 02:55:00
4:00 AM,16,11,73,,0,NW,11.5,,,Fog,Heavy Fog,310,2012-12-08 03:00:00
4:55 AM,15.8,10.4,79,29.30,0.1,NNW,11.5,-,N/A,Fog,Light Freezing Fog,330,2012-12-08 03:55:00
5:55 AM,15.8,10.4,79,29.30,0.2,WNW,15.0,-,N/A,Fog,Light Freezing Fog,290,2012-12-08 04:55:00
6:55 AM,15.8,10.4,79,29.30,0.2,WNW,13.8,-,N/A,Fog,Light Freezing Fog,300,2012-12-08 05:55:00
7:00 AM,16,10,66,,0,WNW,13.8,,,Fog,Heavy Fog,300,2012-12-08 06:00:00
7:55 AM,15.8,10.4,79,29.33,1.2,West,17.3,-,N/A,,Overcast,280,2012-12-08 06:55:00
8:55 AM,15.8,10.4,79,29.36,1.2,West,15.0,-,N/A,,Overcast,280,2012-12-08 07:55:00
9:55 AM,15.8,8.6,73,29.39,0.9,West,16.1,-,N/A,,Overcast,270,2012-12-08 08:55:00
10:00 AM,16,9,62,,1,West,16.1,,,,Mist,270,2012-12-08 09:00:00
10:55 AM,17.6,8.6,68,29.42,0.7,WNW,12.7,-,N/A,,Overcast,300,2012-12-08 09:55:00
11:55 AM,17.6,6.8,63,29.44,0.7,North,6.9,-,N/A,,Overcast,350,2012-12-08 10:55:00
12:55 PM,19.4,3.2,49,29.44,0.9,NNW,11.5,-,N/A,,Overcast,330,2012-12-08 11:55:00
1:00 PM,19,4,36,,1,NNW,11.5,,,,Mist,330,2012-12-08 12:00:00
1:55 PM,17.6,6.8,63,29.47,0.9,NW,9.2,-,N/A,,Overcast,320,2012-12-08 12:55:00
2:55 PM,17.6,3.2,53,29.47,0.9,WNW,11.5,-,N/A,,Mostly Cloudy,290,2012-12-08 13:55:00
3:55 PM,17.6,-7.6,32,29.53,5.0,NW,13.8,-,N/A,,Mostly Cloudy,320,2012-12-08 14:55:00
4:00 PM,18,-7,18,,5,NW,13.8,,,,Mist,320,2012-12-08 15:00:00
4:55 PM,15.8,-0.4,49,29.56,6.2,NW,8.1,-,N/A,,Mostly Cloudy,320,2012-12-08 15:55:00
5:55 PM,14.0,-2.2,49,29.59,6.2,NW,11.5,-,N/A,,Mostly Cloudy,320,2012-12-08 16:55:00
6:55 PM,14.0,-4.0,45,29.59,6.2,NW,10.4,-,N/A,,Mostly Cloudy,320,2012-12-08 17:55:00
7:00 PM,14,-4,28,,6,NW,10.4,,,,Mostly Cloudy,320,2012-12-08 18:00:00
9:55 PM,12.2,-7.6,41,29.71,-9999.0,NW,11.5,-,N/A,,Clear,320,2012-12-08 20:55:00
10:00 PM,13,-8,22,,6,NW,11.5,,,,,320,2012-12-08 21:00:00